OE5RBO Weather Reports


Display with metric or nautical units.
time (UTC)temp
F
wind
direction
speed
MPH
gust
MPH
rain 1hr
in
rain 24hr
in
rain mn
in
humidity
%
barometer
mb
20260507115030 55 201 2.0 5.0 0.00 0.00 0.01 95 1013.5
20260507114029 54 194 2.0 7.0 0.00 0.00 0.00 95 1013.5
20260507113029 55 180 4.0 7.0 0.00 0.00 0.00 92 1013.5
20260507112029 56 198 3.0 7.0 0.00 0.00 0.00 90 1013.5
20260507111028 57 215 3.0 6.0 0.00 0.00 0.00 87 1013.4
20260507105027 59 207 4.0 9.0 0.00 0.00 0.00 82 1013.5
20260507103026 57 177 4.0 6.0 0.00 0.00 0.00 83 1013.6
20260507102026 56 198 4.0 10.0 0.00 0.00 0.00 84 1013.6
20260507101026 57 190 3.0 9.0 0.00 0.00 0.00 84 1013.6
20260507100025 56 193 5.0 8.0 0.00 0.00 0.00 84 1013.7
20260507094025 58 201 4.0 8.0 0.00 0.00 0.00 84 1013.5
20260507092024 57 203 4.0 9.0 0.00 0.00 0.00 83 1013.4
20260507091024 57 198 6.0 12.0 0.00 0.00 0.00 81 1013.4
20260507090023 56 212 6.0 12.0 0.00 0.00 0.00 84 1013.2
20260507085023 57 194 7.0 13.0 0.00 0.00 0.00 83 1013.1
20260507083023 57 207 5.0 11.0 0.00 0.00 0.00 85 1012.9
20260507082022 57 208 6.0 9.0 0.00 0.00 0.00 83 1012.9
20260507080021 57 198 4.0 7.0 0.00 0.00 0.00 84 1012.8
20260507075021 57 215 3.0 6.0 0.00 0.00 0.00 86 1012.9
20260507074020 56 198 2.0 5.0 0.00 0.00 0.00 87 1012.8
20260507073020 56 187 3.0 6.0 0.00 0.00 0.00 88 1012.7
20260507072020 55 195 2.0 5.0 0.00 0.00 0.00 88 1012.7
20260507070019 54 179 1.0 3.0 0.00 0.00 0.00 92 1012.5
20260507065018 53 139 1.0 4.0 0.00 0.00 0.00 94 1012.5
20260507064018 53 66 1.0 3.0 0.00 0.00 0.00 94 1012.5
20260507063018 53 166 0.0 3.0 0.00 0.00 0.00 95 1012.5
20260507062018 53 152 1.0 3.0 0.00 0.00 0.00 92 1012.5
20260507061017 53 141 1.0 3.0 0.00 0.00 0.00 94 1012.5
20260507060017 53 169 0.0 2.0 0.00 0.00 0.00 94 1012.2
20260507055016 52 190 1.0 2.0 0.00 0.00 0.00 96 1012.1
20260507054016 52 217 0.0 1.0 0.00 0.00 0.00 96 1012.1
20260507053016 52 162 1.0 3.0 0.00 0.00 0.00 95 1012.1
20260507052015 52 155 1.0 3.0 0.00 0.00 0.00 94 1012.0
20260507051015 52 191 2.0 9.0 0.00 0.00 0.00 94 1011.9
20260507045014 52 148 2.0 8.0 0.00 0.00 0.00 94 1011.7
20260507044014 51 145 1.0 3.0 0.00 0.00 0.00 95 1011.5
20260507042013 51 149 2.0 6.0 0.00 0.00 0.00 95 1011.2
20260507041013 51 68 1.0 4.0 0.00 0.00 0.00 96 1011.2
20260507040013 51 165 2.0 4.0 0.00 0.00 0.00 96 1011.2
20260507034012 51 142 3.0 7.0 0.00 0.00 0.00 95 1011.1
20260507033011 51 173 2.0 5.0 0.00 0.00 0.00 96 1011.0
20260507032011 51 156 3.0 5.0 0.00 0.00 0.00 95 1011.0
20260507031010 51 136 2.0 6.0 0.00 0.00 0.00 96 1011.0
20260507030010 51 177 2.0 5.0 0.00 0.00 0.00 96 1011.0
20260507025010 51 153 2.0 5.0 0.00 0.00 0.00 96 1010.8
20260507024010 51 150 2.0 4.0 0.00 0.00 0.00 96 1010.7
20260507023009 51 176 2.0 6.0 0.00 0.00 0.00 96 1010.7
20260507022009 51 145 2.0 3.0 0.00 0.00 0.00 96 1010.8
20260507021008 50 159 3.0 5.0 0.00 0.00 0.00 96 1010.7
20260507020009 51 139 1.0 3.0 0.00 0.00 0.00 97 1010.7
20260507015008 51 155 3.0 8.0 0.00 0.00 0.00 96 1010.7
20260507014007 50 121 2.0 4.0 0.00 0.00 0.00 97 1010.6
20260507013007 51 134 3.0 5.0 0.00 0.00 0.00 97 1010.6
20260507011006 50 138 4.0 7.0 0.00 0.00 0.00 97 1010.4
20260507010006 50 87 3.0 6.0 0.00 0.00 0.00 98 1010.4
20260507004005 49 132 2.0 4.0 0.00 0.00 0.00 99 1010.3
20260507003005 49 65 1.0 3.0 0.00 0.00 0.00 99 1010.3
20260507002004 49 131 2.0 3.0 0.00 0.00 0.00 99 1010.3
20260507001004 50 65 2.0 3.0 0.00 0.00 0.00 98 1010.3
20260506235003 50 153 1.0 5.0 0.00 0.00 0.00 98 1010.4
20260506234003 50 153 3.0 7.0 0.00 0.00 0.00 97 1010.3
20260506233003 50 39 4.0 8.0 0.00 0.00 0.00 97 1010.2
20260506232002 50 139 3.0 8.0 0.00 0.00 0.38 98 1010.1
20260506230002 50 86 3.0 4.0 0.00 0.00 0.38 99 1010.1
20260506225001 51 145 3.0 7.0 0.00 0.00 0.38 98 1010.1
20260506224000 51 160 4.0 6.0 0.00 0.00 0.38 98 1010.1
20260506223000 51 150 3.0 6.0 0.00 0.00 0.38 98 1010.1
20260506222000 51 97 3.0 5.0 0.00 0.00 0.38 98 1010.0
20260506221000 51 186 2.0 5.0 0.00 0.00 0.38 98 1009.9
20260506214959 51 152 2.0 5.0 0.00 0.00 0.38 98 1009.8
20260506213959 51 146 3.0 6.0 0.00 0.00 0.38 98 1009.9
20260506212958 51 128 3.0 6.0 0.00 0.00 0.38 99 1009.8
20260506211958 51 152 2.0 5.0 0.00 0.00 0.38 99 1009.7
20260506210957 51 155 1.0 3.0 0.00 0.00 0.38 99 1009.7
20260506204957 52 141 1.0 2.0 0.00 0.00 0.38 99 1009.5
20260506202956 52 183 3.0 6.0 0.00 0.00 0.38 99 1009.5
20260506201956 53 207 4.0 8.0 0.00 0.00 0.38 99 1009.5
20260506195955 54 231 3.0 9.0 0.00 0.00 0.38 98 1009.4
20260506193954 54 203 3.0 9.0 0.00 0.00 0.38 99 1008.9
20260506193042 54 226 3.0 7.0 0.00 0.00 0.38 99 1008.8
20260506190953 54 193 3.0 7.0 0.00 0.00 0.36 100 1008.1
20260506185953 54 169 3.0 6.0 0.00 0.00 0.35 100 1007.9
20260506183952 55 188 3.0 7.0 0.00 0.00 0.34 99 1007.0
20260506183047 55 132 2.0 8.0 0.00 0.00 0.34 99 1006.4
20260506182951 55 132 2.0 8.0 0.00 0.00 0.34 99 1006.4
20260506182105 55 221 3.0 7.0 0.00 0.00 0.34 99 1006.0
20260506180951 55 225 2.0 5.0 0.00 0.00 0.34 100 1005.9
20260506175950 55 135 2.0 6.0 0.00 0.00 0.34 100 1005.8
20260506174950 55 215 2.0 7.0 0.00 0.00 0.34 100 1005.5
20260506173950 55 219 0.0 3.0 0.00 0.00 0.34 99 1005.1
20260506172950 54 10 1.0 5.0 0.00 0.00 0.34 100 1004.7
20260506171949 54 354 5.0 11.0 0.00 0.00 0.34 100 1004.3
20260506165948 54 330 5.0 12.0 0.00 0.00 0.32 99 1004.4
20260506161947 71 359 3.0 6.0 0.00 0.00 0.00 63 1000.9
20260506160946 71 353 5.0 9.0 0.00 0.00 0.00 65 1001.5
20260506155946 71 18 6.0 10.0 0.00 0.00 0.00 61 1001.5
20260506154946 73 10 4.0 8.0 0.00 0.00 0.00 60 1001.4
20260506153945 73 8 3.0 10.0 0.00 0.00 0.00 59 1001.6
20260506152945 73 24 7.0 17.0 0.00 0.00 0.00 59 1001.7
20260506151944 73 10 5.0 11.0 0.00 0.00 0.00 60 1001.8
20260506145944 73 21 8.0 13.0 0.00 0.00 0.00 59 1002.0
20260506143943 74 23 5.0 16.0 0.00 0.00 0.00 59 1002.4
20260506142943 74 25 6.0 11.0 0.00 0.00 0.00 59 1002.5
20260506140942 74 38 8.0 15.0 0.00 0.00 0.00 57 1002.6
20260506135942 74 58 4.0 11.0 0.00 0.00 0.00 58 1002.8
20260506134942 73 10 6.0 13.0 0.00 0.00 0.00 60 1002.9
20260506133941 72 311 7.0 13.0 0.00 0.00 0.00 63 1002.9
20260506132940 73 8 6.0 11.0 0.00 0.00 0.00 61 1003.2
20260506131940 72 17 7.0 14.0 0.00 0.00 0.00 62 1003.3
20260506130940 70 314 6.0 14.0 0.00 0.00 0.00 67 1003.4
20260506125939 70 329 7.0 16.0 0.00 0.00 0.00 67 1003.6
20260506123939 72 4 6.0 11.0 0.00 0.00 0.00 64 1003.7
20260506122938 73 288 5.0 10.0 0.00 0.00 0.00 63 1003.8
20260506121938 74 288 5.0 16.0 0.00 0.00 0.00 60 1003.8
20260506120937 74 23 4.0 7.0 0.00 0.00 0.00 53 1003.9
20260506115937 75 21 3.0 8.0 0.00 0.00 0.00 56 1004.1